Location: Berbisdorf
(50.7638°N, 12.9442°E)
Time: 00:08:00
(UTC+00:00)

Cosmos 1125 Rocket - Pass Details

Date: 07 June 2020
Orbit: 758 x 779 km, 74.0° (Epoch: 11 July)

Event Time Altitude Azimuth Distance (km) Brightness Sun altitude
Rises 01:37:04 0° 328° (NNW) 3,228 7.1 -9.4°
Reaches altitude 10° 01:39:41 10° 318° (NW) 2,299 6.1 -9.1°
Maximum altitude 01:44:08 29° 259° (W) 1,364 4.4 -8.7°
Drops below altitude 10° 01:48:34 10° 200° (SSW) 2,291 5.4 -8.3°
Enters shadow 01:48:53 - 199° (SSW) 2,395 5.5 -8.3°
